Location: Brachbach
(49.1847°N, 9.7240°E)
Time: 03:53:25
(UTC+00:00)

NOSS 3-4 (A) - Pass Details

Date: 23 May 2024
Orbit: 801 x 1410 km, 63.4° (Epoch: 04 June)

Event Time Altitude Azimuth Distance (km) Brightness Sun altitude
Rises 00:33:57 0° 314° (NW) 3,787 6.9 -18.2°
Reaches altitude 10° 00:36:34 10° 308° (NW) 2,917 6.2 -18.0°
Maximum altitude 00:43:02 42° 241° (WSW) 1,644 4.3 -17.6°
Enters shadow 00:47:12 24° 187° (S) 2,349 4.9 -17.4°
